SL-8 R/B, 3131

Orbit data source: Space-Track

SL-8 R/B, 3131 is space debris in LEO originally from a launch on Tue, 20 Feb 1968 UTC launched from the Plesetsk Missile And Space Complex (PKMTR). Debris objects in space refer to the collection of defunct objects orbiting the Earth. Examples of debris include non-operational satellites, rocket bodies, and fragments generated from explosions, collisions, or faulty payload assembly.

Loading next visibility...
Identifier
3131, 1968-011B
Orbit
LEO
Country
Flag of CISCIS
Related business
Manufacturer
Yuzhnoe
Mission
Spacecraft
Bus & Motor
S3, Unknown motor
Mass
1,434 kg wet, 1,434 kg dry
Launch date (UTC)
1968-02-20 (58 years ago)
Launch vehicle
Unknown
Launch site
Plesetsk Missile And Space Complex (PKMTR)
Object type
Payload
Rocket body
Debris
Shape & HBR
Unknown
Radar Cross Section
Large (>1 m²)

Expand to show TLE details & history
Last TLE update: 8 hours ago

TLE from 8 hours ago
0 SL-8 R/B
1  3131U 68011B   26120.14380966 -.00000035  00000-0 -41935-4 0  9998
2  3131  74.0509 184.7139 0013915  35.7101 324.4915 13.18032252799026
Epoch: 2026-04-30T03:27Z
TLE epoch observation values (Epoch: 2026-04-30T03:27:05.154Z)
Latitude
-0.0001°
Longitude
-85.15225°
Altitude
1,186.141 km
Speed
7.265 km/s
True Right ascension
12h 18m 51s
True Declination
0° 00' 00"
Sunlit
Object was in full shadow at epoch
Visualization orbit readout
Latitude
Unknown
Longitude
Unknown
Altitude
Unknown
Speed
Unknown
Apparent Right ascension
Unknown
Apparent Declination
Unknown
Sunlit
N/A
Visualization observer readout
Local Sidereal Time
18:34:52
Azimuth
Unknown
Elevation
Unknown
Doppler factor
Unknown
Orbital elements
Apogee altitude
1,200.532 km
Perigee altitude
1,179.47 km
Semi-major axis
7,568.138 km
Eccentricity
0.00139
Inclination
74.0509°
RAAN
184.7139°
Arg. of periapsis
35.7101°
True anomaly
324.39875°
Mean anomaly
324.4915°
Eccentric anomaly
324.44514°
Mean motion
3.29655 °/min
Orbital period
109.21 mins
BSTAR
-0.000041935
Loading maneuver chart data...
Computing Atmospheric mass density...
Loading historical data...
Loading historical data...
Loading historical data...
Loading historical data...
Loading historical data...
Loading historical data...
Loading historical data...
Other satellites on launch #11 in the year 1968 (1968-02-20 UTC)

Documentation

Showing up to 5 results
|